Wind_Speed
91 94 95 97 94 80 75 77 75 74 68 66 68 72 76 77 78 77 74 72 70 68 66 66 64 63 62 61 60 58 57 56 54 52 51 50 49 48 45 41 41 41 39 38 40 44 45 45 44 41 42 40 36 35 38 36 31 28 28 24 21 20 21 20 19 21 22 21 21 19 17 17 16 15 14 13 14 14 13 13 13 14 14 14 15 15 15 14
91 93 96 96 95 85 78 78 77 72 65 64 65 70 75 73 73 76 75 73 72 70 68 67 65 64 63 62 61 59 58 57 56 54 52 51 50 49 47 44 43 42 40 38 38 42 45 45 45 43 42 41 38 36 38 39 33 28 27 24 22 22 23 23 21 22 23 22 21 19 19 18 17 16 15 15 14 15 14 13 14 14 15 15 15 15 15 15
90 91 95 95 93 87 79 77 80 75 64 62 62 66 70 68 69 74 74 73 72 71 68 67 66 64 64 63 62 61 59 59 58 55 53 52 51 50 48 45 42 41 40 39 38 40 43 45 45 44 43 43 41 39 39 40 36 30 27 25 24 24 25 25 22 23 24 23 21 20 20 19 18 17 16 16 16 17 16 15 14 14 14 15 14 15 15 15
85 90 92 94 93 88 81 76 80 78 66 62 64 64 65 64 66 71 74 73 72 71 69 67 67 65 64 63 63 62 61 61 59 55 53 53 52 51 49 45 42 42 41 40 40 39 41 44 45 45 45 45 43 41 42 43 39 34 29 27 27 27 27 26 24 23 24 24 22 21 21 21 20 19 18 18 19 19 17 15 14 14 15 15 14 14 15 15
78 88 91 93 94 89 82 77 79 81 72 62 65 66 65 65 65 66 70 72 71 70 69 67 67 66 64 63 63 63 62 62 59 56 55 54 53 51 50 47 42 42 43 42 41 39 40 43 45 47 48 48 45 42 44 45 42 38 32 29 29 29 28 27 25 24 25 26 23 22 23 21 20 20 20 20 20 18 17 17 16 15 15 15 15 15 15 14
72 85 90 92 95 91 83 77 76 81 78 65 63 67 68 70 68 65 66 68 68 68 69 68 67 66 65 63 64 64 64 63 58 57 57 55 54 53 52 49 44 43 45 44 42 40 40 42 45 47 48 48 47 44 43 44 43 41 36 33 32 30 29 28 26 24 25 26 24 24 23 21 22 22 22 21 20 18 19 19 18 17 16 16 16 16 16 14
66 81 89 91 97 95 83 77 76 79 81 70 63 67 69 71 71 69 67 65 66 66 67 68 67 66 65 64 65 66 65 63 59 58 58 56 56 54 53 51 46 43 46 45 44 42 41 42 45 46 47 45 46 46 44 42 41 41 38 35 33 30 30 28 26 24 25 27 25 24 23 23 24 23 23 22 20 20 21 20 20 19 19 18 17 16 16 15
61 75 87 92 99 102 87 75 73 77 82 73 63 67 69 69 70 70 67 64 63 64 65 67 68 66 66 65 66 67 66 64 61 59 59 58 57 56 54 53 49 47 48 48 45 43 42 42 46 47 48 45 44 45 44 42 40 41 41 37 33 30 30 28 25 24 25 28 26 24 24 24 25 23 23 23 20 20 21 21 21 21 20 19 18 17 17 17
57 70 84 92 99 107 96 77 70 74 81 79 68 66 70 68 66 67 66 63 61 61 63 64 66 66 66 66 66 68 65 63 62 60 61 60 58 57 55 54 53 52 51 49 46 44 43 43 44 47 48 46 44 44 44 43 41 41 41 37 34 32 31 28 26 24 24 28 27 25 25 26 25 24 24 23 20 20 21 22 23 22 22 20 20 19 19 18
56 65 80 91 97 105 101 81 71 73 79 83 77 68 69 68 64 64 63 64 61 59 61 62 64 66 67 68 69 68 64 63 63 61 62 61 59 58 57 56 56 55 52 50 48 45 44 43 43 45 47 48 47 45 44 44 43 41 41 38 35 34 32 30 28 26 24 26 27 27 26 27 26 24 24 22 20 22 22 23 24 24 23 22 21 21 20 19
56 62 76 89 94 101 103 88 75 76 77 81 83 73 67 66 63 61 62 65 64 62 63 62 62 65 66 68 70 68 64 64 64 62 62 61 60 59 58 57 57 58 54 50 49 48 46 45 44 44 46 48 49 48 46 44 42 42 43 39 36 35 34 33 30 28 26 25 27 29 28 27 25 23 24 23 22 24 23 25 26 25 24 23 22 22 21 20
56 59 72 86 91 97 102 93 80 79 78 76 80 75 66 62 59 57 57 64 67 64 64 62 62 64 65 67 69 66 64 65 65 63 63 62 61 60 59 59 58 58 56 52 49 50 49 47 46 46 45 46 47 49 48 45 41 41 44 42 38 38 36 35 33 30 28 26 26 29 30 28 23 22 26 25 24 25 25 25 26 26 25 24 23 22 22 21
54 56 69 83 90 94 97 95 81 76 78 74 74 74 67 61 59 55 49 59 70 67 63 61 62 63 64 66 67 66 65 66 66 64 64 64 62 60 59 59 59 57 57 55 51 51 52 50 49 48 47 45 44 46 47 46 42 40 44 45 42 42 39 37 36 33 31 28 27 29 30 26 22 26 30 26 25 26 25 26 27 27 26 24 24 24 23 22
51 55 66 79 90 95 96 97 83 71 75 75 72 72 68 65 64 56 44 52 67 69 64 61 61 63 63 64 65 65 66 67 67 66 64 64 63 62 60 59 59 57 56 56 54 52 52 51 50 49 48 46 43 43 43 45 45 40 42 45 46 46 43 41 39 35 34 31 29 30 29 24 24 30 32 28 26 27 26 27 27 27 27 26 26 25 24 25
48 53 64 77 90 96 99 101 84 69 70 75 76 73 71 73 66 54 46 50 60 66 66 62 63 64 63 64 64 64 66 67 68 67 65 65 64 63 62 60 59 57 55 54 53 52 51 50 51 50 48 47 44 43 43 44 46 45 41 42 45 48 45 42 41 37 36 34 32 32 28 25 27 32 32 29 27 27 27 28 28 28 28 27 27 26 26 27
46 53 63 75 89 97 103 102 87 71 67 73 80 76 74 80 72 53 47 50 58 66 69 67 65 64 63 65 64 64 65 67 67 67 66 66 65 64 63 61 59 57 56 54 52 51 50 50 51 51 50 48 46 45 45 44 46 48 47 42 42 45 44 42 42 39 38 36 34 33 29 26 30 33 32 29 28 28 29 29 29 29 29 28 28 28 27 27
46 53 62 74 87 96 103 104 94 76 66 71 78 76 74 81 77 59 48 50 60 66 68 68 65 65 67 66 66 65 63 64 66 68 67 66 66 64 64 64 61 59 57 55 54 52 52 52 52 53 51 49 48 48 47 46 45 47 50 47 43 42 41 41 43 42 40 38 35 35 31 27 31 34 32 31 30 30 30 30 30 30 30 30 30 29 28 27
47 53 60 72 85 94 100 103 100 83 67 67 71 74 75 75 74 65 50 50 63 68 67 68 68 71 74 70 66 64 61 62 65 67 68 68 67 65 65 64 62 60 59 57 56 55 54 54 54 55 53 50 50 49 49 47 44 43 46 44 41 42 41 39 42 44 44 42 38 37 34 29 32 36 34 33 32 31 31 32 32 32 31 31 30 30 29 28
47 52 58 70 83 93 99 102 104 90 70 65 65 72 79 75 74 68 51 46 60 70 74 76 74 72 68 65 65 64 62 63 65 66 68 69 68 67 66 66 63 60 61 60 58 57 56 55 57 56 53 51 51 50 50 47 42 40 41 39 37 39 41 39 41 45 47 46 41 39 36 30 32 37 35 34 34 33 33 34 33 33 32 31 31 30 30 29
48 52 56 67 81 92 99 101 104 95 75 66 65 75 84 81 81 74 55 48 58 64 70 72 69 65 59 58 64 66 65 66 66 67 68 69 69 67 67 67 66 63 62 61 59 57 56 56 58 56 52 50 51 51 50 47 43 40 41 39 35 35 37 37 39 44 49 49 44 42 38 32 33 38 38 36 36 35 34 34 34 33 33 33 32 32 32 30
49 52 55 65 77 90 98 98 102 101 83 69 67 78 86 82 82 74 56 54 60 63 66 67 65 66 62 59 62 66 68 69 67 68 68 69 70 69 68 67 67 66 63 62 60 58 57 58 58 56 52 49 50 51 50 47 43 41 42 41 36 33 32 33 37 43 48 50 47 44 41 35 34 38 39 38 37 36 36 35 35 35 35 35 34 34 33 33
51 53 54 62 74 86 93 94 101 106 94 76 70 78 82 76 76 71 58 55 57 60 65 69 69 69 67 63 64 67 69 69 68 70 70 70 71 70 69 67 66 66 64 62 62 60 59 59 58 56 54 52 51 51 50 48 45 44 45 44 39 34 30 29 32 39 44 49 49 47 45 38 35 38 41 41 38 37 37 37 37 37 37 36 34 34 35 36
51 53 54 60 72 83 87 89 101 109 99 80 72 77 78 73 74 70 61 52 49 56 63 69 72 70 70 68 67 68 67 66 66 67 69 69 71 72 69 68 67 66 65 63 62 61 59 58 57 56 55 54 52 49 48 48 46 45 45 45 42 37 34 32 31 33 38 44 47 48 47 42 37 38 41 42 39 38 39 39 38 38 37 36 36 36 37 36
51 53 55 59 69 79 82 88 101 107 99 82 73 77 80 78 76 67 57 48 48 60 65 65 69 70 71 70 66 68 67 64 63 63 65 68 70 72 70 68 67 66 65 63 61 60 58 56 55 53 53 53 50 48 47 46 44 45 46 45 41 39 39 38 35 33 33 37 43 46 48 46 41 39 40 42 41 39 40 41 39 39 38 37 38 37 37 36
50 53 55 58 66 74 79 89 100 104 98 83 72 78 85 84 77 63 53 46 47 63 69 64 67 70 71 70 69 69 67 64 62 60 62 66 68 69 69 68 67 66 65 63 62 60 59 57 54 51 50 50 49 47 45 43 42 44 46 45 41 39 40 40 39 38 34 33 36 42 48 48 44 42 41 42 45 42 41 42 41 40 40 39 39 38 37 37
49 52 55 59 63 69 78 88 97 103 100 86 74 79 88 86 76 62 54 46 43 60 71 65 67 71 70 73 72 70 70 68 64 61 62 64 66 67 68 68 67 66 65 63 62 61 59 57 54 51 49 48 48 47 44 43 43 44 46 45 42 39 40 41 41 41 40 36 33 37 46 50 46 44 43 44 47 46 43 43 43 41 42 41 40 38 37 37
47 51 54 59 62 65 76 86 93 100 100 89 78 80 86 85 79 68 58 52 46 57 71 68 67 71 71 73 73 72 74 70 65 64 64 64 66 66 67 67 67 66 64 63 63 61 60 57 55 53 51 50 49 47 43 42 43 44 44 44 42 40 40 42 40 40 42 41 36 33 41 50 48 44 46 47 48 48 45 44 44 43 43 42 40 38 37 37
44 48 53 58 61 64 73 82 87 94 98 94 84 81 80 77 73 66 57 57 54 54 66 74 72 71 71 71 71 72 70 66 67 68 64 63 65 66 65 64 64 64 62 61 62 61 59 56 54 52 50 50 48 43 39 39 41 41 42 43 42 41 42 42 40 39 40 43 42 34 35 46 48 44 45 48 48 49 47 45 45 44 44 43 40 39 38 37
41 45 51 57 62 66 71 76 80 89 97 97 90 82 74 66 63 59 54 58 59 53 58 74 76 71 71 70 70 71 69 69 72 70 65 64 65 66 65 61 59 61 61 60 59 59 57 53 50 49 49 48 45 41 39 40 41 40 40 42 43 44 45 43 42 41 41 44 45 38 35 42 47 44 43 46 48 48 47 46 46 45 44 44 42 40 40 40
41 43 47 55 62 67 72 72 75 90 99 98 92 81 72 66 63 61 60 58 58 52 52 69 77 71 70 70 69 70 71 73 74 69 67 65 63 65 65 62 58 58 61 61 60 59 57 54 52 51 51 50 48 45 44 43 44 44 42 42 43 45 46 44 44 43 43 48 46 41 38 41 46 46 42 43 46 47 48 48 47 46 45 45 44 43 42 43
42 42 45 53 59 67 73 69 71 91 101 98 93 84 76 74 69 67 65 58 53 49 49 64 73 70 70 72 70 70 70 73 74 72 70 65 62 64 67 67 65 62 62 63 63 62 60 58 56 55 53 52 50 49 48 47 46 46 45 43 42 44 45 44 46 45 48 51 47 43 42 43 49 48 41 41 44 46 48 49 48 47 45 45 45 45 45 45
42 42 45 51 56 66 72 67 68 86 97 97 95 91 84 79 72 68 66 57 53 50 47 58 70 70 71 71 68 69 69 71 73 72 70 66 64 65 66 68 71 70 68 66 65 64 63 61 59 58 56 54 53 51 50 50 49 48 48 46 43 44 46 47 49 50 52 52 47 45 45 45 48 46 40 40 41 43 47 48 49 48 46 45 46 48 48 47
42 42 44 49 55 64 68 64 67 80 91 94 91 88 84 77 69 67 65 59 56 52 46 53 65 68 70 72 70 69 68 69 70 69 69 68 65 64 65 67 69 70 70 69 69 67 65 64 62 60 59 58 57 55 53 51 50 49 48 45 43 43 45 47 49 51 51 49 46 45 45 45 45 41 39 41 40 41 45 47 50 50 48 47 47 49 49 47
42 42 44 48 54 61 62 61 66 75 85 89 84 76 73 72 69 68 66 58 54 53 47 50 60 65 68 70 71 70 69 70 70 70 71 73 70 66 65 66 66 67 66 66 67 66 65 63 61 59 59 58 56 53 50 47 45 45 44 42 40 40 42 44 46 46 46 46 45 46 46 45 42 39 39 41 39 39 42 44 49 52 51 48 47 49 50 48
42 43 45 48 53 58 57 58 65 72 77 82 80 71 63 66 69 69 66 56 51 53 50 47 53 61 68 69 68 69 70 71 71 71 71 71 71 67 64 64 64 65 65 65 65 63 61 58 55 54 53 53 52 49 47 46 46 46 46 44 43 42 43 43 44 44 44 46 48 49 48 45 43 41 41 40 39 38 39 41 45 50 53 51 48 48 49 48
44 45 46 49 52 53 52 57 64 70 71 72 75 72 62 61 67 69 65 54 49 52 52 48 48 56 68 71 67 67 68 69 70 71 71 68 67 65 63 63 63 63 63 64 65 63 60 57 55 53 52 52 51 50 49 48 48 48 47 46 43 42 42 41 42 43 44 47 49 49 49 45 45 47 43 39 39 39 40 40 40 46 52 54 50 48 48 48
47 48 48 49 50 48 49 56 63 68 69 66 70 72 63 57 62 68 64 52 48 51 53 53 51 57 72 77 72 67 65 66 68 69 71 70 66 63 62 62 60 59 59 60 61 60 58 57 55 54 53 52 51 51 50 49 49 49 48 45 41 40 41 41 43 45 46 50 50 49 49 46 46 49 46 41 39 39 41 40 39 41 48 53 52 49 49 49
51 51 51 49 48 46 48 55 61 66 68 66 69 72 66 57 57 66 66 54 48 51 53 54 54 58 72 78 75 70 66 65 65 65 66 66 63 61 59 60 59 58 58 58 57 56 54 54 53 53 53 52 52 51 50 50 50 50 48 45 43 43 44 43 45 48 48 50 51 49 49 48 47 47 47 44 41 41 41 41 41 39 41 49 53 50 49 50
55 56 53 48 46 46 48 54 59 64 68 70 71 71 69 62 57 62 67 59 51 52 53 53 53 55 65 74 74 70 67 66 62 60 60 58 55 53 52 54 56 57 58 58 56 55 54 54 54 53 53 53 54 53 53 52 51 51 51 50 49 48 47 46 47 49 48 48 50 51 50 50 47 44 44 45 44 42 42 42 42 40 39 45 51 51 50 51
58 60 57 49 47 49 50 54 59 65 70 73 74 72 71 66 59 59 64 60 54 55 55 54 55 55 59 69 73 69 66 66 61 56 55 54 51 49 48 49 50 52 55 57 57 56 57 57 56 55 54 54 54 53 53 52 50 51 51 50 49 46 46 46 46 47 47 48 50 52 53 50 45 44 42 41 40 39 40 41 42 42 40 42 48 52 51 51
61 64 60 52 51 53 54 58 63 67 71 73 73 73 74 72 65 58 59 57 50 52 56 55 55 56 56 62 69 69 66 64 61 58 55 52 49 47 47 47 47 50 53 54 55 56 57 57 56 56 54 52 52 50 49 49 49 49 49 48 46 43 43 44 45 45 45 47 48 50 54 50 44 44 43 39 37 35 36 39 41 41 39 39 45 51 52 53
66 68 63 55 54 57 59 63 65 67 72 73 72 73 75 75 73 63 56 54 49 49 56 57 56 56 54 54 59 65 67 64 60 59 56 50 47 45 45 46 47 51 52 52 54 55 56 56 57 57 55 52 51 50 49 49 49 50 50 50 49 48 47 47 48 47 46 47 46 47 54 52 44 44 45 44 42 38 37 38 39 39 38 39 44 49 52 54
67 68 65 60 58 60 63 67 67 67 73 72 69 72 73 73 77 71 58 54 51 50 56 59 56 53 50 51 54 58 64 65 61 61 59 54 51 49 49 49 50 53 54 53 54 54 54 55 55 55 54 53 52 50 49 49 50 51 51 52 53 52 50 48 48 48 48 48 47 48 53 52 44 41 46 49 48 44 42 41 39 40 40 41 45 47 50 54
63 65 65 61 60 63 67 70 69 69 73 72 68 72 74 73 79 78 64 55 50 49 52 54 52 49 47 49 50 51 57 63 63 62 60 56 53 53 52 51 53 55 52 50 51 52 53 54 53 52 53 54 54 53 53 53 54 54 54 54 54 51 49 49 48 48 49 48 48 50 52 50 44 41 45 50 52 50 48 45 42 41 41 42 43 45 47 51
59 61 61 59 61 65 68 67 67 69 73 73 70 73 77 77 79 76 67 58 50 46 47 47 46 47 47 48 48 48 54 60 61 60 58 55 54 53 52 51 52 54 52 52 53 52 52 51 51 52 53 53 52 51 50 49 49 50 49 48 48 46 46 45 44 46 46 44 46 50 48 44 43 45 48 49 51 52 51 48 46 43 42 42 42 43 46 49
58 58 58 58 61 65 67 64 64 69 74 72 70 73 78 81 80 75 70 65 58 53 49 44 45 48 49 49 50 49 53 59 61 58 56 55 53 52 51 50 51 53 54 55 54 52 52 52 50 49 49 48 47 45 42 40 39 38 39 39 40 41 42 42 44 45 43 43 47 47 44 41 42 47 50 49 49 52 51 48 47 45 42 42 42 41 44 47
58 58 58 61 64 66 68 67 66 69 73 71 70 73 78 81 80 77 73 64 60 64 60 47 43 47 49 50 50 49 51 59 62 59 56 56 53 51 50 50 51 52 52 53 53 52 52 52 50 48 47 47 46 44 42 41 42 42 42 41 41 42 43 45 47 46 43 46 48 44 41 41 42 45 49 48 47 49 49 46 45 43 41 42 43 42 43 45
60 59 57 61 66 67 69 71 70 71 72 69 69 72 74 77 77 74 70 59 51 61 68 58 47 46 48 47 48 48 50 56 60 57 55 55 53 51 50 49 49 49 49 50 50 49 49 49 47 47 47 47 46 46 45 44 46 47 46 44 43 43 44 45 45 43 43 48 48 43 41 43 43 45 47 48 49 49 48 47 44 41 40 42 44 45 46 47
60 59 58 59 64 67 67 67 69 72 71 68 69 72 72 75 76 69 63 59 54 57 66 63 53 48 48 47 48 50 48 50 54 52 51 52 51 51 51 49 49 49 49 50 49 48 48 47 47 47 47 48 48 48 47 47 47 48 48 47 46 44 44 44 42 40 43 45 42 41 44 44 44 46 46 48 52 51 49 49 45 42 42 43 45 47 48 49
60 61 61 61 64 66 64 63 69 74 72 68 71 75 74 76 77 70 60 57 55 54 59 62 56 50 48 45 45 47 44 42 45 47 49 52 53 52 51 50 50 52 53 53 52 51 49 48 48 48 48 50 50 50 49 48 47 47 47 47 47 47 45 44 40 40 44 42 37 40 45 41 39 42 43 47 53 53 52 50 45 42 42 43 46 47 46 48
58 59 60 62 66 67 64 63 69 75 75 72 75 79 79 78 77 72 65 60 52 46 50 58 58 54 52 47 41 40 38 36 39 42 43 47 49 50 49 49 49 51 53 55 54 53 52 51 50 49 50 51 51 50 50 48 46 46 46 46 46 46 44 41 39 40 41 39 37 42 44 37 34 38 41 46 51 53 54 51 45 40 38 41 44 44 44 46
58 58 59 62 65 66 66 64 67 75 77 74 76 79 79 79 77 73 71 67 57 48 47 53 56 57 54 46 38 37 37 35 36 37 38 39 40 42 43 43 43 45 48 50 52 52 52 52 51 50 51 50 49 49 49 47 46 46 43 40 39 38 37 37 37 38 39 38 39 41 40 36 35 38 42 45 48 50 52 51 46 41 37 39 41 42 43 46
Wind_Direction
217 214 213 213 214 214 215 216 211 209 212 215 215 215 217 218 218 219 218 219 219 219 219 216 215 213 212 213 212 212 212 213 213 211 211 212 213 212 211 213 216 215 211 211 208 207 208 208 209 211 213 214 215 216 219 224 225 225 224 220 220 223 225 222 212 215 221 219 219 216 211 209 210 210 207 213 220 225 226 219 217 216 214 214 210 207 205 203
216 214 212 212 214 214 215 216 210 206 209 213 216 215 216 218 218 220 219 218 218 218 219 217 216 214 212 213 213 213 213 213 213 211 211 212 212 213 211 211 216 217 212 212 211 210 210 210 210 212 214 213 217 220 221 224 225 225 224 220 220 223 226 225 215 213 220 221 219 216 212 210 211 210 209 213 220 226 227 221 219 216 214 215 211 207 205 204
217 214 212 210 211 212 213 216 212 205 207 210 213 214 213 214 216 219 219 217 218 217 218 218 217 215 213 213 213 212 213 214 213 212 212 212 212 212 213 212 215 219 215 212 212 212 212 212 211 213 214 213 216 220 223 225 225 225 223 221 221 224 228 229 221 214 219 223 219 217 215 212 211 210 209 211 218 223 224 221 219 215 214 214 210 208 205 204
217 214 212 209 208 209 209 214 214 207 206 208 209 208 207 210 212 217 219 217 217 217 217 218 217 216 214 213 213 213 213 213 212 212 212 212 213 212 213 213 213 218 219 215 213 214 214 214 213 213 215 216 217 218 221 224 224 224 222 223 222 224 230 232 228 218 218 223 220 218 217 214 212 212 209 209 217 222 223 222 219 215 214 212 207 207 206 203
217 214 212 208 205 206 205 210 214 208 205 207 208 206 204 207 210 214 217 218 217 216 217 218 217 217 215 214 214 213 213 213 211 212 213 212 214 213 213 212 212 217 220 216 214 214 216 216 214 215 216 217 218 218 220 222 222 222 222 223 223 224 231 233 232 223 219 224 221 219 220 217 215 215 212 210 216 222 224 222 219 216 215 213 206 202 204 203
218 213 211 207 203 203 201 203 209 207 206 206 205 204 204 206 208 209 212 216 217 216 217 218 218 217 216 214 214 214 214 212 211 213 214 212 214 214 213 212 211 218 221 216 214 215 216 216 214 216 219 218 219 219 219 221 222 222 221 222 222 225 230 232 232 225 218 223 223 220 221 219 217 217 216 213 213 219 224 222 219 215 211 212 210 204 200 199
216 213 210 206 203 202 199 197 202 205 205 205 203 202 204 206 207 207 208 212 215 216 216 217 218 217 216 214 214 214 213 211 211 213 214 213 214 214 214 212 210 217 223 217 212 215 215 217 215 216 222 222 221 221 219 221 222 221 218 220 222 223 228 230 229 224 218 221 224 223 222 220 220 219 220 217 211 216 223 223 219 216 211 209 211 209 203 198
215 213 210 206 203 203 200 194 196 200 203 204 204 202 204 206 205 205 207 208 212 215 216 217 218 217 217 216 215 215 213 211 210 212 215 214 214 214 214 213 209 212 221 217 211 214 215 217 217 217 221 223 223 223 222 223 222 220 216 218 221 219 224 227 227 225 219 220 223 223 223 223 222 221 224 221 213 216 224 225 223 219 215 210 209 210 208 203
214 214 210 206 204 205 203 197 194 198 201 204 206 203 202 205 203 202 206 207 209 214 215 217 217 217 217 216 217 216 214 213 212 212 214 215 214 215 214 214 211 211 218 217 210 213 215 216 218 219 221 222 224 225 225 225 223 221 219 219 219 217 221 224 226 226 223 221 222 222 224 224 224 223 226 225 217 218 224 228 228 224 219 213 210 211 211 209
212 214 210 207 206 206 205 200 197 198 200 203 207 205 200 202 202 200 203 206 208 211 214 215 215 216 216 216 218 216 214 214 214 213 214 215 215 215 215 215 214 214 218 217 211 212 215 217 218 220 221 221 222 224 225 227 225 222 222 222 220 219 221 223 226 228 226 224 222 222 224 226 225 223 227 228 221 220 222 226 229 227 223 216 212 213 213 213
212 212 208 207 207 207 205 203 201 200 200 201 205 207 199 199 202 200 203 206 206 208 213 215 214 215 216 217 219 216 214 215 214 213 215 216 216 215 216 216 217 217 219 219 214 211 214 217 218 220 222 221 221 222 224 226 226 222 222 223 220 221 223 225 227 228 228 227 225 225 225 226 225 225 230 229 224 222 220 223 227 227 226 220 215 214 215 216
212 211 207 207 206 206 205 205 203 200 200 198 200 204 198 195 197 197 205 210 209 208 211 214 214 215 215 216 218 216 214 216 214 213 214 215 216 216 217 218 218 219 220 221 217 212 212 216 218 220 222 223 222 222 223 225 227 223 221 222 221 223 225 227 227 227 228 228 229 228 226 226 224 227 232 229 226 225 222 223 226 227 226 223 220 217 216 215
212 212 207 205 204 204 204 203 200 195 196 195 194 197 195 192 190 191 209 216 214 213 211 212 214 214 214 215 216 215 213 215 215 214 214 215 216 217 218 219 220 220 221 221 219 214 213 214 217 219 221 223 224 224 223 223 227 226 221 220 222 225 226 227 227 226 227 228 230 231 227 223 220 227 232 227 225 227 224 223 226 227 226 224 222 221 219 217
213 211 206 204 202 202 202 200 197 191 192 193 192 192 190 191 191 192 206 214 214 215 212 212 214 214 214 215 215 214 213 214 214 214 214 215 216 216 217 220 221 222 222 222 221 218 215 215 216 219 221 224 225 225 224 222 224 227 224 220 222 226 227 227 228 225 226 227 230 233 228 218 217 227 231 227 225 227 225 225 226 228 227 226 224 223 221 221
212 209 205 203 201 201 200 199 196 188 187 190 193 194 189 188 192 193 195 203 210 212 211 212 214 213 214 214 213 213 213 213 214 214 214 214 215 216 216 219 221 222 224 224 223 222 220 217 218 219 221 223 225 226 226 223 223 226 226 223 223 226 226 227 229 229 229 228 228 232 228 215 218 228 231 228 226 226 226 225 226 227 228 228 227 226 224 225
211 208 204 202 201 201 200 198 194 188 184 185 191 195 190 187 192 195 191 200 212 211 207 209 212 213 213 213 211 211 213 213 214 214 214 215 215 216 216 218 219 221 224 225 225 225 224 221 220 220 221 222 224 227 227 225 224 227 228 226 224 226 227 228 231 231 231 230 228 232 229 217 220 228 230 230 228 227 227 226 225 226 227 228 228 228 227 227
210 207 203 201 201 202 202 199 195 192 185 181 186 190 189 187 192 197 193 202 215 214 210 207 210 212 211 211 210 209 212 212 213 214 214 216 215 216 217 218 219 220 222 224 225 225 225 224 223 223 222 222 223 226 228 226 224 228 231 229 226 227 229 232 235 235 234 232 229 232 233 221 221 229 228 228 228 226 227 227 225 225 225 227 228 229 230 229
209 207 203 201 202 203 203 202 200 196 187 180 181 185 188 187 189 193 193 201 210 211 210 208 208 211 210 211 211 210 212 213 214 214 214 216 216 216 217 218 219 220 222 223 224 224 224 224 225 225 223 223 224 225 227 228 226 229 232 233 230 230 232 234 236 237 237 235 232 232 232 223 221 229 228 227 229 226 226 226 226 226 225 227 228 229 230 230
208 207 203 201 201 203 204 204 203 199 190 184 182 183 187 186 186 191 192 204 211 205 205 207 208 211 212 215 215 211 211 213 214 214 213 215 216 216 216 217 218 219 221 223 223 223 224 225 226 226 224 224 225 226 228 230 231 232 234 235 235 234 235 235 236 237 237 237 235 231 230 223 221 228 229 227 229 227 226 227 226 226 226 226 228 228 229 229
207 207 206 202 200 202 204 206 204 200 192 187 185 184 186 186 187 190 190 200 215 213 208 210 211 213 213 214 215 212 210 211 213 214 213 214 216 216 216 217 217 218 218 220 222 223 224 225 227 228 227 226 227 228 229 231 232 234 235 235 235 237 235 234 235 236 236 237 236 233 230 225 220 227 230 227 228 228 228 228 227 227 226 226 226 227 227 227
206 207 208 204 201 202 205 207 204 200 195 189 186 186 187 187 187 190 192 194 208 216 213 210 211 213 212 210 211 213 213 212 211 212 213 213 215 216 216 217 218 219 219 219 221 222 224 225 226 228 229 228 228 230 230 231 232 233 236 234 232 233 231 230 232 233 234 235 235 234 231 226 220 225 230 229 228 229 229 229 228 228 227 226 225 226 227 227
206 207 209 206 203 203 205 207 203 200 198 191 188 187 187 187 187 191 198 196 201 211 210 207 208 210 211 209 209 210 213 213 211 211 211 212 214 216 216 217 218 220 221 221 221 222 223 223 225 229 229 228 228 229 230 230 230 230 233 233 229 227 227 228 230 231 233 235 235 234 232 226 221 224 230 232 229 228 230 230 229 229 229 228 226 227 228 229
207 208 209 208 205 205 206 205 203 202 200 192 187 187 184 185 188 192 199 198 202 210 209 206 207 209 210 210 210 210 212 214 215 215 214 213 213 215 216 216 218 219 220 221 223 224 224 224 227 230 230 230 229 229 230 230 230 230 233 234 232 231 231 234 235 232 234 236 236 236 235 227 221 223 231 234 231 229 231 232 231 231 231 230 228 227 229 231
208 209 210 209 207 207 206 204 203 203 200 191 185 185 184 186 190 192 196 198 203 211 211 209 208 210 211 212 213 213 212 213 217 219 219 217 216 215 215 216 217 219 219 220 222 224 226 227 230 233 233 233 232 230 230 231 231 231 234 236 237 237 238 240 241 239 237 237 237 238 239 232 224 225 230 236 236 230 231 234 234 234 233 231 230 229 229 231
208 209 210 209 209 209 206 203 203 203 199 191 185 186 186 188 190 190 196 202 204 209 210 209 209 211 212 213 213 212 210 211 213 216 219 221 221 219 218 216 217 218 219 220 221 223 224 226 228 232 234 235 234 233 233 233 232 232 234 237 238 240 241 242 243 243 241 240 238 238 240 236 229 228 231 235 239 235 231 234 235 235 235 233 232 232 230 231
207 209 209 209 210 209 206 202 203 203 200 192 186 186 188 188 189 190 200 207 204 206 208 206 208 211 210 211 212 210 208 206 208 212 214 217 220 222 221 219 218 218 218 219 221 222 222 224 227 228 231 232 234 234 234 234 233 232 234 237 240 240 243 244 244 244 244 244 243 240 240 238 232 231 232 233 239 239 234 233 234 235 236 235 234 234 233 232
208 208 208 209 211 210 205 202 203 204 201 195 189 187 188 189 191 193 202 211 206 203 207 207 208 210 210 211 211 210 209 206 205 209 213 214 215 218 221 222 221 219 219 220 220 221 221 223 226 228 229 231 232 234 235 235 235 234 235 238 242 243 246 249 249 248 246 246 246 245 245 242 235 231 232 233 237 241 238 233 233 235 237 237 235 235 236 236
208 208 208 209 210 210 206 204 205 204 201 199 194 188 187 190 193 195 204 214 209 202 206 207 207 209 210 211 211 211 212 210 207 208 210 212 214 214 216 220 223 222 222 223 222 221 222 225 227 229 231 233 234 236 236 237 237 237 237 239 242 245 248 250 252 252 250 248 246 247 251 248 239 231 232 234 237 242 242 236 233 234 237 238 236 235 236 236
209 209 209 209 210 209 207 207 205 201 198 199 196 190 186 189 194 198 208 215 209 204 206 205 204 206 207 209 211 211 210 208 208 208 207 209 213 214 213 215 220 222 222 223 224 223 224 227 229 231 232 233 234 236 236 237 238 238 237 238 239 243 246 248 250 251 252 250 247 247 254 254 244 233 231 235 238 242 243 239 235 234 236 238 236 233 234 235
209 210 210 210 210 208 207 209 203 197 197 198 197 192 187 191 197 204 211 212 208 207 206 203 201 201 204 207 209 209 207 206 206 206 207 208 210 211 211 211 215 220 221 220 220 222 224 227 229 229 230 230 232 233 234 235 237 237 236 236 237 240 243 245 248 249 251 251 248 245 250 255 249 237 230 233 239 242 242 241 238 234 234 237 236 233 233 235
210 212 212 211 210 207 207 209 202 198 199 200 199 196 193 199 206 210 211 206 207 211 206 203 202 201 203 206 207 206 206 206 206 205 206 207 208 209 209 208 209 213 218 218 218 219 220 222 225 227 228 230 232 234 235 236 237 239 239 238 238 239 242 244 246 248 249 250 248 243 243 250 251 243 233 231 237 241 241 240 240 237 234 235 236 234 233 234
210 213 213 212 211 207 206 208 203 201 202 202 202 201 202 206 211 214 211 206 209 212 206 203 202 201 203 205 206 206 205 206 206 206 206 206 208 209 208 209 211 212 215 215 216 218 219 220 222 224 226 228 231 234 236 237 238 240 241 240 237 237 240 243 244 247 249 249 250 246 242 245 251 251 240 232 235 241 242 241 241 240 236 234 236 236 235 235
212 214 214 214 212 208 207 207 205 204 204 204 205 206 208 211 212 211 210 210 212 210 206 203 200 200 203 204 205 205 204 205 205 205 205 205 208 210 210 211 214 216 218 217 216 216 218 219 220 222 224 227 229 232 235 238 239 241 242 242 239 239 242 245 247 250 252 254 255 254 250 246 250 257 249 236 236 241 242 242 243 243 239 235 235 237 237 236
214 216 216 214 213 211 210 208 206 205 205 205 206 208 210 213 212 209 207 210 212 209 207 203 200 202 204 205 206 206 205 206 204 204 204 204 206 209 210 211 213 216 218 219 219 219 219 220 221 223 226 228 231 233 236 238 240 242 243 243 241 243 246 248 251 253 255 258 258 258 257 250 249 257 255 244 239 242 243 242 243 245 243 238 235 237 238 237
215 218 218 215 214 214 212 208 207 206 205 207 206 206 210 213 212 208 206 208 210 209 208 203 202 205 205 205 207 207 207 208 206 205 206 205 206 208 211 212 213 215 216 217 220 221 223 224 224 226 229 232 234 236 238 239 242 243 244 243 243 244 245 246 250 251 253 255 255 256 258 254 250 253 256 249 243 243 245 244 242 243 245 243 238 237 239 238
216 219 218 216 216 217 213 209 208 207 206 209 209 207 207 211 211 207 205 208 210 209 208 204 204 208 207 206 207 207 207 209 208 207 207 207 207 209 212 213 214 216 217 218 219 220 222 224 224 225 228 231 234 236 237 238 241 243 244 247 248 249 248 248 251 253 253 254 255 256 257 256 251 250 254 254 248 244 244 246 245 242 242 244 242 239 239 239
216 217 218 217 219 218 214 211 210 210 209 210 211 207 203 208 210 207 204 206 209 210 209 206 206 209 208 206 207 207 206 207 209 208 207 206 207 209 212 213 215 217 218 219 220 221 222 224 224 224 226 229 232 234 235 236 238 241 244 247 248 247 247 249 251 252 253 255 256 256 255 256 253 250 252 257 256 251 247 247 249 245 240 243 243 241 240 239
215 216 217 218 221 220 214 212 212 213 212 212 211 206 198 200 204 205 206 208 209 209 210 210 209 209 209 207 206 207 207 206 207 209 208 207 208 211 213 214 214 214 215 217 220 221 223 225 225 225 226 228 231 233 235 237 239 243 245 245 245 245 247 249 251 252 254 257 258 257 256 256 255 252 253 257 259 258 253 249 251 252 245 241 242 240 240 240
217 218 217 218 224 223 216 214 214 215 215 213 210 202 194 194 198 201 206 210 211 211 211 212 212 211 209 207 207 207 208 209 209 210 210 210 211 213 215 216 215 213 212 213 215 217 220 224 225 226 227 228 231 233 236 238 241 243 245 245 246 247 248 249 250 253 255 257 259 259 257 254 255 256 256 258 261 262 259 252 251 254 251 243 241 239 239 241
219 221 218 217 225 224 219 216 214 215 216 213 209 201 192 192 194 195 201 207 212 214 212 212 213 214 210 207 207 207 208 210 210 211 211 210 211 212 214 216 215 215 214 213 214 215 217 220 223 225 226 227 230 234 237 239 240 242 244 246 248 250 251 252 254 255 257 258 259 261 260 257 257 259 258 259 263 264 262 256 252 253 252 247 243 240 239 240
223 224 219 218 224 224 221 218 215 215 215 212 209 201 193 192 192 192 197 203 211 214 211 210 212 214 214 210 208 208 209 210 211 211 211 209 209 211 213 215 215 216 217 215 215 216 217 220 222 225 226 228 231 233 235 236 237 239 241 243 245 247 248 249 252 253 255 257 258 261 262 259 258 260 259 258 262 263 262 258 254 253 253 250 246 243 240 239
227 227 222 220 225 225 222 220 215 214 214 211 207 201 195 194 195 196 198 203 210 211 207 207 210 211 212 213 212 212 212 213 213 212 210 209 212 214 215 216 216 217 217 218 218 219 219 220 222 224 226 228 230 231 234 235 237 238 239 240 243 244 245 247 250 252 252 253 255 259 261 259 257 259 259 257 257 259 261 261 257 254 251 249 247 244 242 240
230 229 225 222 225 225 223 221 215 213 214 210 206 201 197 194 196 200 200 201 207 209 204 206 209 209 210 211 213 216 216 215 215 213 210 211 215 216 215 216 217 218 218 218 219 220 221 222 223 224 225 227 229 231 233 235 237 240 242 244 245 247 249 250 251 252 251 253 255 257 259 260 258 259 260 259 257 257 260 262 262 258 252 249 248 246 244 242
230 229 226 223 224 223 222 220 214 211 211 208 204 200 195 192 195 201 204 201 202 205 204 204 207 209 211 211 212 216 217 215 213 211 211 212 214 214 215 216 218 220 221 221 221 221 222 224 225 226 227 228 229 230 233 236 239 241 243 244 246 247 249 249 250 251 252 253 255 255 258 263 263 260 260 260 259 258 259 262 263 262 256 252 251 250 247 244
231 229 224 220 221 221 221 219 214 211 210 206 203 198 192 190 195 201 204 202 198 199 203 205 206 208 210 211 212 215 215 212 210 209 210 212 212 212 214 215 218 220 221 224 225 225 226 227 228 228 229 230 232 235 240 244 247 247 248 249 251 252 252 252 253 254 255 256 257 258 261 265 265 262 261 261 261 260 259 261 263 264 260 256 253 250 248 246
231 227 219 214 215 218 219 217 212 211 211 206 202 198 192 191 195 199 203 204 204 206 207 205 206 208 210 212 214 216 215 213 213 212 211 210 210 210 212 213 216 219 220 223 226 227 229 230 231 231 233 235 238 241 246 249 249 248 248 249 250 251 252 253 253 255 258 258 257 259 263 262 259 261 263 263 261 259 259 259 262 263 259 255 254 251 247 246
227 222 214 210 210 211 213 211 207 209 210 207 202 199 194 193 196 201 205 207 213 217 214 209 208 209 211 214 216 217 216 214 215 216 214 211 210 212 215 216 217 219 221 223 225 227 229 230 230 232 234 235 238 240 240 241 242 242 241 241 243 245 247 249 251 255 257 257 257 260 262 259 257 258 260 262 259 257 257 256 257 260 257 252 251 250 248 246
221 216 211 211 211 209 208 206 203 205 207 206 203 199 196 195 196 199 203 203 207 213 214 212 211 209 210 215 217 215 212 210 211 213 214 213 212 214 218 220 220 220 222 224 225 227 230 232 232 234 235 237 238 239 239 240 242 244 244 244 245 247 249 252 255 257 258 257 259 261 260 259 258 256 258 260 258 255 254 252 251 254 254 251 250 249 248 248
215 210 205 209 213 211 209 205 203 204 204 202 199 197 195 194 193 195 200 200 199 205 210 211 211 208 207 211 215 215 212 208 207 209 211 211 212 213 215 217 219 220 222 224 226 226 228 230 232 233 235 236 238 238 239 241 243 245 246 246 247 248 251 254 257 257 257 258 260 261 259 257 258 259 261 262 260 257 254 251 248 249 250 249 248 246 245 246
211 206 201 204 208 209 208 206 203 204 203 199 195 192 190 190 191 193 196 198 198 202 206 208 209 209 209 211 215 216 214 211 210 210 210 208 208 210 212 214 216 218 219 220 221 223 225 226 227 229 230 232 234 236 238 240 242 244 244 245 247 248 251 254 256 256 257 259 261 261 260 258 258 262 263 262 259 257 254 250 247 246 249 252 251 249 246 245
206 203 201 203 205 203 203 204 205 205 202 196 192 189 187 187 190 194 196 198 200 202 203 205 208 210 213 215 213 208 204 205 207 210 211 210 208 209 210 211 214 216 217 217 217 218 221 223 225 226 228 230 232 234 236 238 239 240 242 247 251 253 253 255 256 256 258 261 261 259 260 262 262 261 260 259 258 256 254 253 248 244 247 253 254 253 252 250
199 198 199 202 205 203 200 201 204 205 201 195 190 187 186 187 191 195 197 199 203 204 202 204 208 210 211 211 204 196 194 196 197 201 207 211 213 214 214 215 217 219 220 222 221 219 218 221 224 225 227 230 233 235 236 237 237 240 246 253 256 256 255 255 255 256 259 260 259 258 261 263 260 256 255 257 258 258 258 257 253 244 241 246 250 251 252 253
Height
5601 5611 5621 5630 5638 5646 5653 5658 5665 5673 5680 5685 5689 5696 5701 5707 5715 5721 5727 5733 5737 5742 5747 5753 5757 5762 5767 5771 5775 5779 5783 5786 5790 5794 5798 5802 5806 5809 5811 5815 5817 5819 5821 5823 5825 5827 5830 5833 5836 5838 5840 5843 5846 5848 5850 5852 5855 5857 5859 5862 5865 5868 5869 5869 5871 5872 5873 5874 5875 5876 5877 5878 5879 5880 5881 5882 5882 5883 5884 5885 5885 5886 5887 5887 5889 5890 5890 5891
5593 5603 5613 5623 5632 5642 5648 5652 5660 5667 5674 5680 5685 5692 5697 5705 5712 5716 5722 5728 5732 5737 5742 5748 5753 5758 5762 5766 5771 5775 5779 5782 5786 5791 5795 5799 5802 5806 5808 5812 5814 5817 5819 5822 5824 5826 5828 5831 5834 5836 5838 5841 5843 5846 5848 5850 5852 5855 5857 5861 5864 5865 5866 5867 5869 5870 5871 5872 5874 5875 5876 5877 5878 5879 5880 5881 5882 5882 5883 5884 5885 5886 5886 5887 5888 5889 5889 5890
5585 5595 5604 5615 5626 5637 5643 5646 5654 5662 5668 5675 5680 5686 5693 5702 5709 5711 5716 5722 5727 5732 5737 5743 5749 5754 5758 5762 5767 5771 5775 5778 5782 5787 5792 5795 5799 5803 5806 5809 5812 5815 5818 5820 5822 5824 5826 5829 5832 5834 5835 5838 5840 5843 5846 5848 5850 5853 5856 5859 5861 5863 5864 5865 5867 5868 5870 5871 5873 5874 5875 5876 5877 5878 5879 5880 5881 5881 5882 5883 5885 5886 5886 5886 5888 5888 5889 5890
5578 5587 5597 5607 5619 5630 5637 5641 5649 5658 5663 5669 5674 5679 5687 5695 5701 5705 5711 5717 5722 5727 5732 5738 5743 5749 5754 5759 5763 5767 5771 5773 5778 5785 5788 5792 5796 5800 5803 5807 5811 5814 5816 5818 5819 5821 5823 5826 5829 5831 5833 5835 5838 5841 5843 5845 5848 5851 5854 5857 5859 5861 5862 5863 5865 5867 5868 5869 5871 5873 5874 5874 5875 5876 5877 5878 5879 5880 5881 5883 5884 5885 5886 5886 5887 5888 5888 5889
5570 5580 5589 5600 5612 5622 5631 5636 5643 5651 5658 5664 5669 5674 5682 5688 5694 5701 5707 5712 5718 5723 5728 5733 5739 5745 5750 5755 5759 5763 5765 5769 5777 5781 5784 5788 5792 5796 5800 5804 5808 5811 5813 5815 5817 5819 5821 5823 5826 5828 5830 5832 5835 5838 5841 5843 5845 5848 5852 5854 5856 5858 5860 5861 5864 5866 5867 5868 5869 5871 5872 5874 5875 5876 5876 5877 5878 5880 5881 5882 5883 5885 5885 5885 5886 5887 5888 5889
5564 5573 5582 5593 5606 5615 5624 5631 5636 5645 5653 5660 5665 5670 5676 5681 5688 5696 5701 5708 5714 5719 5724 5728 5734 5740 5745 5751 5754 5757 5761 5768 5776 5778 5780 5785 5788 5792 5796 5800 5804 5807 5809 5812 5815 5816 5818 5820 5823 5825 5827 5830 5832 5835 5838 5841 5843 5846 5850 5852 5854 5856 5857 5860 5862 5864 5866 5867 5868 5869 5871 5873 5874 5874 5875 5876 5877 5879 5880 5881 5882 5884 5885 5885 5885 5886 5887 5888
5559 5566 5576 5587 5598 5608 5616 5624 5630 5639 5648 5655 5660 5666 5672 5677 5683 5690 5696 5702 5710 5714 5719 5724 5729 5735 5740 5745 5748 5752 5758 5765 5772 5774 5777 5781 5784 5788 5793 5797 5801 5804 5806 5808 5812 5813 5815 5817 5820 5823 5825 5828 5831 5833 5835 5838 5841 5844 5847 5850 5852 5854 5855 5857 5860 5862 5865 5866 5867 5869 5871 5872 5872 5873 5874 5875 5877 5878 5878 5880 5881 5882 5883 5884 5884 5885 5886 5887
5554 5560 5569 5580 5590 5599 5608 5617 5625 5632 5642 5650 5655 5661 5667 5673 5678 5686 5692 5698 5705 5710 5715 5719 5724 5730 5735 5740 5744 5748 5754 5761 5767 5770 5774 5777 5781 5785 5788 5793 5797 5800 5802 5805 5809 5811 5813 5815 5817 5820 5822 5826 5829 5831 5833 5835 5838 5841 5845 5848 5850 5852 5853 5855 5858 5860 5862 5864 5865 5867 5869 5871 5872 5873 5874 5874 5877 5877 5878 5879 5880 5881 5882 5883 5884 5885 5886 5886
5549 5554 5563 5573 5582 5590 5600 5611 5619 5627 5636 5644 5650 5656 5662 5668 5675 5683 5690 5695 5701 5705 5710 5715 5720 5726 5730 5736 5739 5745 5753 5759 5763 5767 5769 5773 5777 5781 5785 5789 5792 5795 5797 5802 5806 5808 5810 5812 5814 5817 5820 5823 5826 5828 5830 5832 5836 5839 5842 5845 5848 5850 5851 5853 5856 5858 5860 5862 5863 5865 5867 5869 5871 5873 5873 5874 5877 5877 5878 5879 5879 5880 5881 5883 5883 5884 5885 5886
5545 5549 5557 5567 5575 5583 5594 5605 5614 5622 5630 5638 5645 5652 5658 5665 5672 5679 5686 5691 5696 5700 5705 5710 5715 5721 5725 5730 5733 5742 5752 5755 5759 5764 5766 5769 5773 5777 5781 5784 5788 5791 5794 5798 5803 5806 5808 5810 5812 5814 5816 5820 5823 5825 5827 5830 5833 5837 5840 5843 5846 5847 5849 5851 5854 5856 5858 5860 5862 5863 5864 5867 5869 5872 5872 5874 5876 5876 5877 5878 5878 5879 5880 5882 5883 5883 5884 5885
5540 5543 5551 5560 5569 5578 5589 5600 5610 5618 5625 5633 5641 5650 5656 5662 5670 5677 5683 5688 5692 5696 5701 5706 5710 5716 5720 5725 5730 5741 5749 5749 5753 5759 5762 5766 5770 5773 5777 5780 5784 5787 5791 5795 5799 5803 5805 5807 5809 5811 5813 5816 5820 5822 5825 5827 5830 5834 5837 5840 5843 5845 5846 5849 5851 5854 5856 5858 5860 5861 5862 5864 5868 5872 5872 5873 5875 5875 5875 5876 5877 5878 5879 5880 5881 5882 5883 5884
5534 5539 5546 5555 5564 5573 5584 5595 5606 5613 5621 5629 5637 5647 5654 5659 5668 5677 5683 5686 5690 5693 5698 5702 5705 5711 5716 5721 5727 5737 5742 5743 5748 5753 5757 5761 5766 5770 5773 5776 5780 5783 5788 5791 5795 5799 5802 5804 5806 5808 5810 5813 5817 5819 5823 5826 5828 5831 5834 5837 5840 5842 5844 5846 5848 5851 5853 5856 5857 5859 5860 5863 5868 5871 5869 5871 5873 5873 5874 5875 5876 5877 5878 5879 5881 5882 5882 5884
5530 5536 5542 5550 5560 5569 5579 5591 5602 5608 5616 5624 5632 5642 5650 5657 5666 5674 5680 5683 5685 5690 5694 5699 5702 5706 5711 5716 5723 5730 5734 5737 5743 5748 5752 5757 5762 5766 5769 5773 5776 5780 5783 5786 5790 5795 5798 5800 5803 5805 5807 5810 5814 5816 5820 5823 5825 5828 5831 5834 5837 5838 5841 5844 5845 5847 5849 5853 5855 5855 5858 5863 5868 5867 5865 5869 5871 5872 5874 5874 5875 5876 5877 5878 5879 5880 5881 5882
5528 5533 5538 5545 5555 5565 5574 5585 5597 5604 5611 5620 5628 5637 5644 5654 5662 5668 5674 5677 5680 5686 5690 5695 5698 5700 5705 5712 5718 5724 5727 5731 5737 5743 5748 5754 5758 5762 5766 5770 5773 5776 5780 5782 5786 5791 5794 5797 5800 5802 5805 5808 5811 5814 5817 5820 5822 5825 5828 5831 5834 5834 5838 5840 5841 5844 5846 5849 5851 5852 5856 5862 5865 5862 5862 5867 5869 5871 5872 5873 5874 5875 5876 5877 5878 5879 5880 5880
5524 5529 5534 5541 5550 5560 5569 5580 5592 5599 5606 5615 5624 5632 5640 5650 5659 5663 5666 5671 5676 5682 5686 5690 5691 5693 5699 5704 5711 5717 5721 5725 5732 5738 5744 5749 5754 5758 5762 5766 5769 5773 5776 5779 5783 5787 5791 5794 5797 5799 5802 5805 5808 5810 5813 5816 5819 5821 5824 5828 5830 5831 5835 5838 5839 5841 5843 5845 5848 5849 5853 5859 5861 5859 5861 5865 5868 5869 5870 5871 5872 5874 5874 5875 5876 5877 5878 5878
5521 5525 5531 5537 5545 5555 5564 5574 5587 5593 5600 5610 5619 5628 5636 5644 5653 5656 5660 5669 5674 5676 5678 5680 5682 5688 5694 5698 5705 5710 5714 5721 5729 5735 5740 5745 5749 5754 5758 5762 5765 5769 5773 5776 5780 5783 5787 5790 5793 5796 5799 5802 5805 5806 5809 5813 5815 5817 5819 5824 5827 5829 5833 5835 5836 5838 5840 5842 5845 5846 5851 5857 5857 5856 5860 5863 5865 5867 5868 5869 5870 5872 5873 5874 5875 5876 5877 5877
5518 5522 5528 5534 5541 5550 5559 5568 5579 5587 5595 5605 5613 5622 5632 5639 5647 5654 5660 5666 5668 5670 5675 5678 5682 5686 5687 5690 5698 5704 5711 5720 5725 5730 5736 5741 5745 5750 5754 5758 5762 5765 5769 5772 5775 5779 5782 5786 5789 5792 5795 5798 5800 5802 5804 5808 5812 5814 5815 5819 5824 5827 5830 5833 5833 5835 5837 5839 5841 5844 5848 5853 5854 5854 5857 5860 5862 5864 5866 5867 5868 5869 5870 5872 5873 5874 5875 5877
5515 5520 5525 5530 5537 5545 5554 5562 5571 5582 5591 5599 5607 5618 5629 5637 5644 5652 5657 5660 5660 5664 5670 5672 5673 5671 5671 5682 5696 5704 5712 5717 5721 5726 5731 5735 5740 5746 5750 5754 5758 5762 5765 5767 5771 5774 5777 5781 5784 5786 5790 5794 5796 5799 5800 5803 5809 5812 5813 5817 5822 5825 5827 5829 5830 5832 5834 5835 5838 5840 5844 5850 5851 5851 5854 5857 5859 5861 5862 5863 5865 5866 5868 5870 5871 5873 5874 5875
5512 5517 5522 5528 5533 5539 5548 5556 5565 5577 5586 5593 5602 5612 5623 5631 5638 5645 5649 5650 5649 5650 5651 5653 5658 5662 5674 5690 5698 5702 5708 5712 5716 5721 5726 5730 5735 5740 5745 5748 5753 5757 5760 5763 5766 5770 5774 5777 5778 5781 5786 5790 5793 5796 5798 5802 5807 5810 5812 5815 5819 5821 5824 5826 5827 5828 5830 5832 5834 5837 5841 5846 5848 5848 5851 5854 5855 5858 5859 5860 5862 5864 5866 5868 5869 5871 5872 5873
5510 5514 5519 5524 5530 5535 5542 5550 5560 5572 5580 5587 5596 5604 5610 5618 5625 5633 5638 5641 5644 5647 5649 5654 5664 5674 5684 5692 5694 5697 5702 5705 5710 5715 5720 5726 5730 5734 5739 5743 5747 5751 5754 5759 5763 5767 5771 5772 5774 5779 5784 5788 5790 5793 5796 5800 5805 5808 5809 5812 5815 5818 5820 5822 5823 5824 5825 5827 5830 5833 5837 5842 5845 5845 5847 5850 5852 5854 5856 5858 5860 5862 5863 5865 5866 5867 5869 5871
5506 5511 5515 5520 5526 5531 5536 5544 5555 5566 5573 5581 5589 5596 5603 5612 5622 5631 5636 5638 5642 5646 5650 5658 5667 5672 5678 5684 5689 5693 5694 5696 5703 5708 5714 5720 5724 5728 5733 5738 5743 5746 5751 5755 5759 5763 5765 5768 5772 5776 5780 5785 5788 5791 5794 5798 5803 5806 5806 5808 5812 5815 5816 5817 5818 5820 5821 5822 5826 5829 5832 5838 5842 5842 5843 5845 5848 5851 5853 5855 5857 5858 5859 5861 5863 5865 5867 5868
5503 5507 5511 5515 5520 5526 5531 5539 5550 5559 5566 5575 5582 5591 5602 5615 5626 5634 5637 5636 5637 5640 5644 5652 5657 5663 5672 5678 5682 5684 5686 5691 5696 5699 5705 5713 5718 5723 5729 5735 5739 5743 5749 5752 5755 5758 5761 5765 5769 5773 5777 5781 5783 5787 5791 5794 5799 5801 5802 5804 5807 5811 5813 5813 5813 5815 5816 5818 5822 5825 5828 5834 5838 5839 5839 5841 5845 5849 5850 5852 5854 5855 5856 5858 5861 5863 5864 5864
5500 5503 5507 5510 5515 5520 5525 5535 5546 5553 5562 5573 5582 5593 5604 5613 5621 5627 5630 5632 5633 5635 5639 5644 5648 5656 5665 5669 5673 5678 5683 5689 5694 5697 5703 5708 5712 5717 5724 5730 5734 5739 5744 5748 5752 5756 5759 5763 5767 5769 5773 5776 5779 5784 5788 5791 5795 5798 5799 5801 5804 5807 5808 5809 5809 5811 5814 5816 5819 5821 5823 5829 5834 5836 5836 5837 5842 5846 5847 5848 5851 5852 5855 5857 5859 5860 5860 5862
5497 5500 5503 5506 5510 5515 5522 5532 5542 5550 5561 5573 5583 5594 5603 5608 5615 5620 5624 5626 5626 5628 5634 5639 5645 5653 5659 5665 5671 5674 5679 5686 5693 5699 5704 5706 5708 5713 5719 5725 5730 5735 5739 5744 5749 5752 5757 5761 5764 5767 5769 5772 5776 5781 5784 5788 5792 5794 5796 5798 5801 5803 5804 5805 5807 5809 5812 5814 5817 5819 5820 5825 5832 5833 5833 5835 5838 5842 5844 5845 5848 5850 5852 5854 5855 5857 5858 5860
5494 5497 5501 5504 5507 5513 5520 5530 5540 5549 5558 5570 5581 5591 5597 5604 5611 5616 5618 5619 5619 5622 5627 5634 5640 5645 5653 5661 5663 5667 5676 5683 5688 5695 5701 5704 5708 5712 5716 5721 5725 5730 5735 5740 5744 5748 5752 5755 5760 5763 5766 5770 5773 5778 5782 5785 5788 5790 5792 5794 5797 5799 5800 5802 5805 5808 5810 5811 5814 5816 5815 5820 5828 5830 5831 5833 5833 5837 5841 5841 5844 5847 5849 5851 5852 5854 5856 5858
5491 5495 5499 5502 5505 5511 5518 5528 5539 5545 5555 5568 5579 5587 5593 5601 5608 5612 5613 5612 5613 5615 5619 5626 5632 5638 5646 5650 5654 5663 5670 5674 5681 5689 5693 5698 5705 5710 5713 5717 5721 5725 5731 5735 5739 5743 5748 5752 5756 5760 5763 5766 5770 5774 5778 5781 5784 5786 5789 5791 5793 5795 5796 5798 5802 5805 5807 5809 5811 5813 5812 5815 5822 5827 5828 5829 5829 5832 5836 5838 5841 5844 5845 5848 5850 5852 5854 5855
5489 5493 5497 5501 5504 5509 5517 5526 5534 5542 5554 5567 5576 5583 5590 5598 5604 5607 5606 5603 5604 5609 5613 5620 5626 5633 5639 5643 5650 5656 5658 5666 5678 5683 5686 5692 5697 5703 5709 5713 5718 5723 5727 5730 5734 5739 5745 5749 5753 5756 5760 5763 5766 5771 5775 5778 5780 5783 5786 5788 5790 5793 5794 5796 5799 5802 5804 5807 5809 5811 5811 5810 5816 5823 5824 5824 5825 5827 5831 5834 5836 5839 5841 5844 5848 5850 5851 5853
5487 5491 5495 5499 5502 5507 5514 5522 5531 5541 5552 5561 5569 5577 5585 5593 5597 5600 5597 5592 5597 5604 5608 5614 5621 5629 5635 5641 5647 5651 5658 5670 5674 5674 5681 5688 5692 5697 5704 5709 5716 5722 5725 5727 5732 5739 5744 5747 5751 5755 5758 5761 5766 5771 5773 5774 5777 5780 5783 5785 5788 5790 5791 5793 5795 5798 5800 5802 5806 5810 5809 5805 5811 5820 5820 5821 5823 5823 5827 5831 5833 5836 5838 5841 5845 5847 5848 5849
5485 5489 5493 5496 5498 5502 5510 5518 5527 5538 5547 5554 5561 5567 5578 5586 5589 5591 5587 5585 5594 5601 5604 5610 5617 5624 5629 5635 5640 5645 5656 5664 5664 5670 5678 5681 5685 5693 5700 5706 5712 5717 5721 5725 5732 5737 5741 5745 5748 5751 5754 5759 5764 5766 5768 5770 5772 5776 5778 5780 5784 5785 5786 5788 5790 5793 5794 5796 5803 5809 5807 5802 5805 5814 5818 5818 5820 5822 5824 5827 5829 5832 5835 5837 5840 5843 5843 5844
5483 5487 5490 5493 5496 5500 5507 5516 5526 5536 5543 5549 5555 5563 5571 5575 5577 5578 5575 5580 5591 5597 5601 5607 5612 5617 5621 5626 5631 5638 5648 5653 5659 5669 5673 5674 5680 5688 5695 5702 5709 5713 5716 5720 5726 5732 5737 5741 5743 5746 5751 5756 5759 5759 5761 5765 5767 5770 5772 5775 5778 5780 5782 5784 5785 5787 5787 5791 5800 5804 5802 5798 5797 5806 5815 5816 5818 5820 5822 5823 5825 5829 5831 5833 5836 5838 5839 5839
5481 5484 5487 5492 5496 5500 5507 5515 5525 5533 5538 5544 5552 5559 5563 5564 5566 5565 5567 5578 5589 5593 5598 5603 5607 5612 5615 5619 5625 5633 5642 5647 5654 5661 5664 5671 5677 5681 5686 5691 5697 5704 5709 5714 5720 5726 5730 5734 5738 5743 5748 5751 5753 5754 5756 5760 5763 5765 5767 5772 5775 5775 5778 5780 5781 5782 5783 5787 5794 5796 5796 5793 5791 5801 5812 5814 5815 5817 5817 5819 5822 5825 5828 5830 5832 5834 5834 5834
5477 5481 5485 5489 5494 5499 5504 5511 5518 5526 5531 5539 5544 5547 5551 5553 5554 5557 5566 5577 5583 5587 5594 5599 5604 5608 5611 5617 5624 5630 5637 5643 5649 5656 5662 5669 5673 5676 5682 5685 5689 5695 5700 5708 5716 5721 5725 5729 5734 5739 5743 5746 5748 5750 5752 5756 5758 5759 5762 5767 5769 5770 5772 5774 5776 5777 5779 5783 5787 5788 5789 5790 5791 5799 5807 5811 5812 5813 5815 5817 5819 5821 5824 5826 5828 5829 5830 5831
5474 5478 5482 5486 5491 5497 5501 5506 5512 5518 5524 5529 5534 5538 5542 5542 5544 5553 5565 5572 5577 5584 5592 5597 5603 5606 5609 5614 5618 5625 5634 5640 5645 5653 5659 5665 5670 5674 5679 5683 5689 5694 5700 5707 5711 5714 5718 5722 5728 5734 5738 5741 5743 5745 5749 5752 5754 5756 5759 5763 5765 5767 5769 5770 5772 5774 5778 5782 5784 5784 5785 5789 5793 5795 5800 5806 5808 5809 5811 5814 5815 5816 5819 5822 5824 5824 5826 5828
5472 5476 5479 5483 5488 5492 5497 5502 5507 5511 5516 5520 5526 5531 5533 5533 5540 5553 5563 5568 5575 5583 5589 5594 5600 5605 5609 5612 5615 5622 5630 5634 5641 5647 5652 5657 5663 5667 5673 5680 5687 5693 5700 5706 5709 5712 5716 5720 5728 5733 5736 5739 5741 5744 5747 5749 5751 5753 5757 5760 5762 5765 5767 5768 5769 5772 5777 5779 5779 5779 5782 5788 5793 5792 5794 5800 5804 5804 5807 5810 5811 5812 5814 5817 5819 5821 5822 5825
5470 5473 5475 5479 5482 5486 5492 5498 5501 5505 5510 5513 5518 5522 5524 5529 5540 5551 5558 5566 5573 5579 5585 5591 5597 5601 5605 5609 5614 5620 5624 5629 5637 5643 5648 5653 5658 5664 5672 5679 5684 5689 5696 5701 5706 5712 5717 5723 5730 5733 5735 5738 5739 5742 5744 5746 5747 5749 5752 5754 5758 5762 5763 5764 5766 5769 5772 5772 5772 5774 5778 5785 5790 5789 5788 5793 5799 5802 5802 5805 5808 5809 5810 5812 5815 5817 5819 5822
5466 5468 5471 5475 5478 5483 5491 5495 5497 5501 5505 5507 5508 5512 5520 5529 5540 5549 5557 5565 5572 5576 5582 5587 5590 5594 5598 5604 5609 5613 5620 5628 5634 5638 5645 5653 5659 5665 5671 5676 5681 5686 5692 5698 5704 5710 5715 5720 5724 5728 5730 5732 5734 5736 5739 5741 5742 5744 5747 5751 5756 5758 5759 5761 5764 5766 5767 5765 5768 5772 5775 5781 5785 5784 5784 5788 5794 5798 5798 5799 5803 5805 5806 5807 5810 5813 5815 5817
5461 5464 5467 5471 5474 5480 5487 5492 5494 5496 5498 5500 5500 5507 5519 5529 5538 5548 5557 5564 5570 5575 5579 5582 5584 5587 5591 5597 5602 5608 5617 5625 5630 5635 5641 5648 5655 5662 5669 5674 5681 5687 5693 5698 5703 5708 5712 5715 5719 5722 5724 5726 5728 5730 5733 5735 5737 5739 5744 5750 5753 5752 5754 5758 5759 5761 5761 5761 5765 5769 5771 5775 5778 5779 5783 5785 5788 5792 5794 5795 5797 5799 5802 5803 5805 5808 5810 5811
5457 5459 5462 5467 5472 5477 5483 5487 5489 5490 5491 5493 5496 5508 5520 5528 5536 5546 5553 5559 5565 5571 5575 5578 5582 5585 5589 5594 5601 5609 5617 5623 5628 5634 5640 5647 5653 5660 5667 5673 5679 5685 5690 5695 5700 5705 5709 5711 5714 5717 5719 5722 5723 5725 5728 5731 5734 5738 5743 5746 5746 5746 5750 5754 5753 5755 5757 5758 5760 5764 5767 5769 5773 5776 5780 5781 5782 5785 5788 5791 5793 5794 5797 5799 5800 5802 5804 5805
5453 5454 5458 5467 5472 5474 5479 5482 5483 5484 5483 5485 5493 5505 5517 5526 5534 5543 5550 5557 5563 5568 5572 5577 5582 5586 5590 5597 5603 5611 5618 5623 5628 5634 5641 5647 5654 5661 5666 5670 5675 5680 5684 5689 5694 5699 5702 5705 5708 5711 5714 5716 5717 5720 5724 5729 5732 5735 5738 5739 5740 5742 5745 5747 5748 5751 5753 5754 5756 5759 5761 5765 5770 5774 5776 5776 5777 5779 5781 5785 5788 5789 5791 5793 5794 5796 5798 5799
5449 5448 5455 5466 5468 5470 5475 5476 5476 5476 5475 5481 5492 5505 5516 5524 5532 5540 5547 5555 5561 5565 5570 5576 5581 5585 5590 5597 5603 5610 5616 5621 5628 5634 5639 5646 5653 5658 5662 5667 5672 5677 5680 5684 5688 5692 5695 5697 5701 5704 5707 5710 5714 5719 5723 5726 5729 5731 5733 5735 5736 5739 5741 5743 5745 5748 5749 5750 5752 5753 5755 5762 5769 5770 5771 5772 5772 5773 5775 5778 5781 5783 5784 5786 5788 5790 5792 5794
5442 5439 5449 5462 5464 5465 5468 5466 5466 5468 5472 5482 5492 5503 5514 5522 5528 5536 5544 5552 5557 5562 5568 5574 5580 5584 5589 5595 5601 5607 5613 5619 5626 5632 5637 5644 5650 5654 5659 5663 5668 5672 5675 5679 5683 5686 5689 5692 5696 5699 5703 5708 5713 5717 5719 5721 5724 5726 5728 5730 5733 5735 5737 5739 5741 5744 5745 5745 5748 5749 5749 5759 5767 5766 5767 5769 5768 5768 5769 5771 5774 5776 5778 5780 5781 5783 5786 5788
5433 5432 5444 5457 5458 5458 5460 5458 5460 5466 5471 5479 5488 5499 5510 5518 5526 5534 5541 5547 5551 5556 5563 5570 5575 5580 5587 5594 5600 5606 5611 5617 5625 5630 5636 5643 5648 5653 5657 5661 5665 5668 5671 5675 5679 5682 5685 5688 5690 5694 5699 5704 5708 5711 5714 5716 5719 5720 5722 5727 5729 5728 5731 5735 5736 5740 5741 5741 5745 5746 5744 5754 5763 5761 5761 5763 5763 5763 5764 5765 5767 5768 5770 5772 5773 5776 5779 5781
5427 5430 5440 5449 5450 5451 5452 5451 5456 5463 5467 5478 5489 5499 5509 5517 5525 5532 5536 5542 5547 5552 5559 5565 5571 5577 5584 5591 5597 5603 5609 5616 5622 5628 5633 5638 5643 5648 5653 5657 5661 5663 5666 5670 5674 5678 5681 5683 5686 5690 5694 5698 5702 5706 5709 5712 5714 5716 5721 5724 5724 5725 5729 5731 5732 5734 5735 5737 5742 5741 5740 5748 5758 5759 5757 5756 5756 5759 5758 5758 5760 5761 5763 5764 5765 5769 5772 5774
5423 5425 5432 5440 5442 5441 5440 5442 5451 5458 5465 5477 5487 5494 5503 5513 5521 5527 5533 5538 5544 5550 5557 5563 5570 5577 5583 5588 5595 5601 5607 5612 5617 5623 5629 5634 5639 5644 5648 5653 5657 5659 5664 5669 5671 5674 5676 5678 5682 5686 5689 5692 5697 5700 5703 5707 5710 5714 5717 5717 5718 5722 5725 5725 5728 5728 5729 5735 5738 5735 5737 5746 5753 5755 5754 5750 5750 5752 5752 5752 5754 5755 5757 5759 5760 5763 5766 5768
5414 5415 5423 5432 5433 5431 5434 5442 5452 5459 5464 5473 5480 5488 5498 5508 5516 5524 5531 5538 5543 5549 5556 5563 5569 5575 5580 5586 5591 5597 5602 5608 5614 5619 5625 5631 5636 5640 5645 5651 5655 5658 5663 5666 5669 5672 5674 5676 5679 5682 5685 5689 5694 5698 5703 5708 5710 5711 5713 5714 5716 5719 5719 5721 5724 5722 5726 5734 5733 5730 5737 5746 5749 5749 5748 5747 5747 5746 5746 5748 5748 5749 5751 5753 5755 5757 5759 5762
5405 5408 5416 5423 5424 5425 5433 5443 5452 5458 5463 5470 5478 5486 5494 5504 5513 5521 5528 5534 5539 5544 5551 5559 5565 5570 5575 5581 5586 5592 5598 5605 5611 5617 5622 5627 5633 5638 5643 5648 5651 5655 5658 5662 5665 5670 5673 5675 5678 5682 5686 5690 5695 5699 5704 5706 5706 5707 5709 5711 5712 5713 5714 5716 5716 5718 5727 5730 5726 5728 5736 5741 5743 5742 5740 5742 5743 5741 5742 5745 5744 5745 5746 5747 5750 5751 5753 5755
5396 5400 5408 5413 5415 5419 5427 5436 5444 5451 5460 5470 5478 5484 5492 5502 5511 5518 5523 5529 5534 5540 5548 5555 5560 5566 5572 5578 5584 5590 5596 5601 5607 5613 5619 5623 5629 5634 5639 5643 5646 5650 5655 5658 5662 5667 5670 5673 5677 5682 5685 5688 5691 5694 5697 5697 5698 5700 5702 5704 5706 5707 5708 5709 5710 5718 5724 5720 5719 5729 5733 5733 5737 5736 5733 5735 5737 5736 5738 5740 5741 5741 5741 5742 5744 5746 5747 5749
5389 5396 5406 5412 5413 5416 5419 5427 5437 5446 5456 5468 5478 5485 5493 5500 5507 5513 5519 5525 5531 5537 5544 5551 5557 5565 5572 5578 5584 5588 5592 5597 5602 5608 5614 5619 5625 5630 5634 5639 5644 5648 5653 5655 5659 5664 5668 5672 5677 5680 5682 5684 5686 5688 5690 5691 5692 5693 5696 5699 5702 5702 5704 5705 5710 5717 5717 5712 5718 5727 5727 5727 5730 5730 5729 5730 5729 5730 5732 5733 5734 5734 5734 5736 5738 5740 5742 5743
5385 5393 5403 5410 5414 5418 5422 5430 5439 5445 5452 5462 5471 5480 5488 5495 5504 5513 5519 5524 5529 5535 5541 5549 5557 5564 5571 5576 5582 5586 5590 5595 5600 5606 5612 5618 5622 5626 5630 5634 5639 5644 5648 5652 5656 5660 5664 5668 5672 5674 5677 5679 5680 5682 5684 5685 5686 5688 5690 5694 5696 5699 5701 5703 5709 5712 5708 5708 5716 5719 5718 5722 5724 5725 5728 5726 5723 5724 5726 5726 5727 5727 5726 5728 5730 5732 5735 5736
5381 5389 5397 5404 5410 5418 5426 5433 5439 5443 5450 5459 5465 5473 5483 5492 5503 5511 5516 5522 5530 5535 5542 5551 5559 5565 5570 5575 5580 5586 5593 5599 5603 5608 5611 5613 5616 5620 5624 5628 5633 5636 5639 5643 5648 5653 5657 5661 5664 5667 5669 5671 5673 5676 5677 5678 5680 5681 5683 5687 5692 5696 5698 5701 5705 5705 5702 5706 5714 5712 5710 5716 5721 5722 5723 5720 5717 5718 5718 5719 5720 5721 5721 5722 5723 5725 5728 5730
5382 5391 5399 5404 5407 5413 5421 5428 5435 5440 5446 5452 5459 5468 5478 5489 5500 5508 5515 5524 5533 5540 5547 5554 5559 5563 5568 5573 5579 5586 5593 5596 5600 5606 5609 5612 5615 5618 5620 5624 5627 5631 5634 5637 5640 5645 5649 5653 5657 5660 5662 5664 5667 5669 5670 5672 5674 5674 5678 5685 5690 5693 5695 5697 5699 5700 5700 5704 5707 5704 5704 5713 5719 5718 5715 5713 5711 5711 5711 5712 5714 5715 5716 5716 5716 5719 5722 5724
5382 5390 5398 5403 5407 5411 5416 5423 5430 5435 5441 5449 5459 5468 5479 5490 5499 5506 5513 5522 5530 5537 5544 5550 5555 5559 5564 5572 5580 5585 5588 5590 5595 5600 5604 5608 5613 5616 5619 5623 5626 5629 5633 5636 5639 5642 5645 5648 5652 5655 5656 5659 5662 5664 5667 5668 5668 5671 5681 5688 5689 5689 5691 5693 5695 5696 5697 5699 5699 5699 5703 5709 5712 5710 5709 5707 5706 5705 5706 5706 5707 5708 5708 5708 5709 5713 5715 5717